Portsmouth, NH

5:49 PM EST on November 19, 2017 (GMT -0500)
Pease International Tradeport

Weather History for KPSM - October, 2013

Change the Weather History Date:

Wednesday, October 2, 2013

  Actual Average Record
Temperature  
Mean Temperature 65 °F -  
Max Temperature 80 °F 63 °F 86 °F (1982)
Min Temperature 51 °F 43 °F 32 °F (1992)
Growing Degree Days 15 (Base 50)    
Moisture  
Dew Point 56 °F    
Average Humidity 78    
Maximum Humidity 100    
Minimum Humidity 48    
Precipitation  
Precipitation 0.00 in - - ()
Sea Level Pressure  
Sea Level Pressure 29.85 in    
Wind  
Wind Speed 4 mph (WSW)    
Max Wind Speed 15 mph    
Max Gust Speed -    
Visibility 9 miles    
Events Fog    
Averages and records for this station are not official NWS values.
T = Trace of Precipitation, MM = Missing Value Source: NWS Daily Summary

Daily Weather History Graph

Daily Weather History Graph

Search for Another Location

Airport or City:

Trip Planner

Search our weather history database for the weather conditions in past years. The results will help you decide how hot, cold, wet, or windy it might be!

Date:

Astronomy

Oct. 02, 2013 Rise Set
Actual Time 6:41 AM EDT 6:22 PM EDT
Civil Twilight 6:13 AM EDT 6:50 PM EDT
Nautical Twilight 5:40 AM EDT 7:23 PM EDT
Astronomical Twilight 5:07 AM EDT 7:56 PM EDT
Moon 4:08 AM EDT (10/2) 4:58 PM EDT (10/2)
Length of Visible Light 12h 37m
Length of Day
11h 40m
Waning Crescent, 6% of the Moon is Illuminated
Oct 2
Waning Crescent
Oct 4
New
Oct 11
First Quarter
Oct 18
Full
Oct 26
Last Quarter

Hourly Weather History & Observations

Time (EDT) Temp. Dew Point Humidity Pressure Visibility Wind Dir Wind Speed Gust Speed Precip Events Conditions
12:58 AM 56.3 °F 55.0 °F 96% 29.87 in 8.0 mi Calm Calm - N/A   Clear
1:58 AM 54.7 °F 54.5 °F 99% 29.87 in 8.0 mi Calm Calm - N/A   Clear
2:58 AM 54.1 °F 53.8 °F 99% 29.86 in 8.0 mi NW 2.3 mph - N/A   Clear
3:58 AM 53.8 °F 53.6 °F 99% 29.86 in 8.0 mi WSW 2.3 mph - N/A   Clear
4:28 AM 53.6 °F 53.6 °F 100% 29.85 in 8.0 mi SSW 2.3 mph - N/A   Clear
4:58 AM 52.0 °F 51.8 °F 99% 29.86 in 8.0 mi WSW 3.5 mph - N/A   Clear
5:13 AM 51.8 °F 51.8 °F 100% 29.84 in 8.0 mi SW 3.5 mph - N/A   Clear
5:58 AM 51.3 °F 51.1 °F 99% 29.86 in 8.0 mi Calm Calm - N/A   Clear
6:10 AM 51.8 °F 51.8 °F 100% 29.85 in 8.0 mi West 4.6 mph - N/A Fog Patches of Fog
6:58 AM 54.1 °F 53.6 °F 98% 29.86 in 8.0 mi WSW 6.9 mph - N/A   Scattered Clouds
7:58 AM 57.2 °F 53.6 °F 88% 29.86 in 10.0 mi SW 3.5 mph - N/A   Mostly Cloudy
8:58 AM 63.1 °F 54.5 °F 73% 29.87 in 10.0 mi WSW 9.2 mph - N/A   Partly Cloudy
9:58 AM 67.5 °F 55.2 °F 65% 29.86 in 10.0 mi West 9.2 mph - N/A   Partly Cloudy
10:58 AM 71.8 °F 57.0 °F 60% 29.84 in 10.0 mi West 10.4 mph - N/A   Scattered Clouds
11:58 AM 73.8 °F 58.1 °F 58% 29.84 in 10.0 mi West 11.5 mph - N/A   Partly Cloudy
12:58 PM 77.4 °F 58.5 °F 52% 29.83 in 10.0 mi West 8.1 mph - N/A   Clear
1:58 PM 79.3 °F 58.5 °F 49% 29.81 in 10.0 mi West 11.5 mph - N/A   Partly Cloudy
2:58 PM 78.6 °F 57.7 °F 49% 29.81 in 10.0 mi West 8.1 mph - N/A   Scattered Clouds
3:58 PM 79.3 °F 57.9 °F 48% 29.80 in 10.0 mi West 15.0 mph - N/A   Partly Cloudy
4:58 PM 77.4 °F 57.7 °F 51% 29.80 in 10.0 mi West 9.2 mph - N/A   Clear
5:58 PM 73.8 °F 57.2 °F 56% 29.82 in 10.0 mi West 6.9 mph - N/A   Clear
6:58 PM 70.3 °F 56.7 °F 62% 29.84 in 10.0 mi WSW 4.6 mph - N/A   Clear
7:58 PM 67.1 °F 57.0 °F 70% 29.85 in 10.0 mi WSW 5.8 mph - N/A   Clear
8:58 PM 66.2 °F 57.6 °F 74% 29.87 in 10.0 mi WSW 4.6 mph - N/A   Clear
9:58 PM 64.2 °F 57.9 °F 80% 29.89 in 10.0 mi West 2.3 mph - N/A   Clear
10:58 PM 62.6 °F 57.7 °F 84% 29.91 in 10.0 mi West 5.8 mph - N/A   Clear
11:58 PM 61.5 °F 57.7 °F 87% 29.93 in 10.0 mi West 5.8 mph - N/A   Clear